GFSSE_925_thetae_276.txt.gz
Theta_e
349 352 348 347 339 348 351 351 348 349 347 348 348 348 347 344 335 330 325 319 320 326 333 334 333 334 335 323 317 316 317 319 323 324 336 339 333 336 335 343 345 346 338
350 351 348 347 347 338 342 350 351 348 348 348 347 345 341 333 329 322 321 327 331 333 332 332 331 334 332 327 316 316 316 317 327 330 330 340 331 341 346 344 344 344 338
350 352 351 347 347 348 340 347 347 346 346 346 344 341 335 329 322 323 329 332 333 331 332 330 331 330 322 314 310 310 312 315 320 333 336 338 344 346 346 344 341 339 339
350 350 351 348 347 348 345 345 344 344 344 345 339 332 326 320 324 327 329 329 330 332 330 329 329 329 326 321 317 314 311 309 314 324 331 337 344 344 345 343 343 342 341
350 350 350 348 347 346 344 343 343 344 344 339 332 325 328 329 328 328 330 332 333 331 329 329 327 324 321 319 318 318 318 317 317 318 322 326 334 340 342 341 342 341 341
348 349 349 347 346 345 342 342 343 342 341 334 325 324 325 326 326 328 330 332 333 329 321 320 321 321 321 321 319 319 319 318 321 321 320 322 327 329 332 334 335 333 329
345 347 349 344 344 342 340 341 342 342 338 332 334 333 330 325 326 328 327 327 332 329 327 322 321 321 321 321 320 320 319 318 320 320 319 319 324 323 328 326 326 325 324
344 346 346 341 340 340 341 341 341 339 334 333 334 333 332 327 325 325 325 327 331 330 325 322 322 321 321 322 321 321 319 319 321 320 319 318 318 318 327 326 325 324 323
343 343 345 344 342 339 340 340 339 336 332 332 327 324 324 324 324 323 322 324 324 324 322 321 321 321 321 322 321 320 319 317 320 318 317 317 319 320 324 327 328 327 326
345 345 343 344 344 343 343 340 338 333 324 323 321 322 322 322 322 321 320 322 323 325 325 323 320 320 321 322 321 319 317 318 318 318 316 318 313 322 325 326 326 327 328
341 342 342 342 343 343 342 340 334 328 322 321 322 323 323 329 328 325 328 323 325 328 325 322 320 321 322 323 321 318 317 318 318 317 315 314 311 320 323 325 326 326 327
338 337 338 340 341 341 339 339 337 333 325 328 331 331 331 332 331 329 330 325 327 325 324 321 321 323 324 323 321 318 318 318 317 317 316 313 310 319 321 324 325 327 328
335 336 337 337 336 337 337 335 331 332 329 329 332 333 333 332 331 330 332 332 332 328 328 326 326 325 323 321 319 319 318 317 317 317 316 314 312 320 322 323 327 325 326
336 335 334 334 334 336 335 336 334 329 326 325 329 331 331 332 332 332 331 331 330 329 328 327 326 324 321 320 319 318 318 317 317 316 316 314 314 320 326 324 324 322 322
333 332 331 331 331 332 332 330 328 328 327 328 329 330 331 331 331 330 330 329 328 327 326 324 320 319 319 320 319 319 317 316 316 316 317 316 318 323 322 322 321 320 320
332 331 330 330 330 329 329 329 329 329 328 328 329 329 328 327 327 328 326 326 324 322 321 322 319 318 320 320 319 318 317 316 315 316 317 318 317 320 320 320 321 319 320
330 330 330 330 329 328 328 326 326 324 324 324 324 324 325 323 323 322 322 322 322 322 321 320 317 318 319 318 317 316 316 315 315 316 316 317 318 317 316 320 320 320 319
326 325 323 322 321 322 322 323 323 323 322 322 322 320 321 322 323 323 323 322 322 321 321 318 318 315 315 314 315 314 315 314 314 314 316 316 318 317 318 317 314 318 319
320 320 320 321 322 322 322 321 319 317 318 316 317 316 316 317 317 317 317 320 321 321 319 317 316 312 312 312 314 314 315 315 314 313 315 316 317 316 317 318 314 312 314
321 320 319 318 319 318 318 317 317 316 318 320 318 317 315 315 313 313 315 316 316 319 318 317 315 314 313 312 315 315 315 314 314 314 314 313 314 315 315 316 317 317 315
322 321 320 319 319 317 316 315 314 314 316 316 317 317 317 316 315 315 315 317 319 320 320 319 316 315 314 315 314 315 315 314 315 314 313 313 313 314 314 315 316 316 316
321 320 319 319 318 317 313 314 314 314 314 314 314 313 314 313 313 313 314 315 316 317 319 319 319 315 313 314 315 314 316 314 314 314 313 312 313 314 314 315 315 315 315
320 320 319 319 318 316 314 311 311 312 312 312 311 311 312 313 313 313 314 314 315 316 317 319 319 314 315 315 315 315 315 315 313 313 313 313 313 312 314 315 315 314 314
319 319 319 319 317 314 313 311 313 312 312 312 311 311 311 311 313 313 313 314 315 314 316 317 317 316 316 315 315 315 314 314 314 315 312 312 311 311 312 312 313 314 313
319 318 318 316 314 313 312 312 312 311 311 310 310 310 310 310 312 312 313 313 314 314 314 316 316 315 315 315 315 315 315 314 314 314 314 313 311 310 310 310 311 313 312
318 317 315 313 312 312 312 311 311 311 311 311 311 310 310 309 311 312 312 313 314 314 314 314 315 315 316 314 314 315 316 315 314 314 315 313 311 310 309 309 309 312 311

GFSSE_925_thetae_279.txt.gz
Theta_e
351 350 346 340 348 351 350 349 346 345 347 348 348 348 347 343 336 331 330 331 333 334 335 337 336 328 320 317 316 316 318 324 323 327 341 340 334 333 339 341 348 346 337
352 351 347 343 340 348 349 350 349 347 347 347 348 347 344 337 333 330 331 333 332 333 335 336 334 327 315 311 310 311 314 320 327 329 340 338 338 341 349 346 348 344 337
353 353 350 346 344 341 346 347 347 347 347 348 346 342 338 334 332 331 332 331 332 333 334 332 331 330 321 317 316 315 311 312 326 328 334 344 348 344 348 346 344 340 340
350 351 351 347 347 346 340 344 345 343 345 345 343 341 335 329 331 330 332 333 332 333 333 332 329 324 321 319 319 319 319 319 319 322 328 332 346 344 344 345 342 343 342
349 351 351 346 346 346 341 342 343 343 343 343 342 339 338 336 331 331 333 333 332 333 332 332 330 322 321 321 320 320 320 320 323 325 324 324 335 338 342 341 342 341 339
349 351 350 347 345 345 341 341 342 342 343 342 339 337 336 337 333 334 333 332 332 331 331 329 322 322 322 322 321 321 321 320 324 324 324 323 332 328 328 334 335 334 331
347 348 348 344 344 341 341 342 341 342 342 340 338 337 336 334 332 332 332 333 332 330 323 322 321 322 322 322 322 321 321 320 324 324 323 321 325 319 324 328 327 325 324
343 345 346 342 340 341 342 339 341 340 339 338 336 336 332 329 329 329 331 331 330 325 324 323 321 322 322 322 322 321 319 318 323 322 321 322 321 317 322 329 327 326 326
344 345 344 345 342 339 340 339 340 337 333 332 331 328 326 324 324 324 323 325 326 326 323 322 321 321 322 323 322 320 318 320 323 322 321 322 319 313 324 327 328 330 330
344 343 343 345 344 343 343 339 337 332 326 326 325 325 324 322 322 321 321 323 325 327 325 322 321 321 323 324 322 321 319 322 323 322 320 318 315 311 323 326 328 329 328
341 340 340 341 343 344 343 338 334 327 323 321 321 322 323 329 327 327 330 328 323 327 325 323 321 322 324 326 324 321 321 322 322 321 320 318 314 312 322 324 326 326 328
341 340 339 339 341 342 341 340 338 332 326 326 329 328 330 332 332 331 331 329 325 326 325 324 325 327 327 326 325 323 323 322 321 321 321 318 314 312 322 323 326 328 329
339 337 336 336 337 338 338 338 336 333 330 332 331 333 332 333 332 332 330 333 333 331 332 329 328 328 327 325 324 323 323 322 321 320 320 318 313 316 324 324 325 325 325
335 335 335 335 336 337 336 334 334 331 329 329 329 333 333 333 333 332 332 332 332 331 329 329 325 325 323 323 323 323 322 321 320 320 320 319 315 321 325 325 326 322 322
335 333 334 333 333 334 333 332 329 328 327 328 329 330 329 331 331 331 332 331 329 329 326 326 323 323 320 321 323 322 322 321 320 319 319 319 318 321 323 323 322 322 321
334 333 332 332 332 331 331 331 330 330 330 329 328 328 328 327 326 328 327 328 325 323 322 323 323 321 320 320 321 322 321 320 319 319 319 320 319 316 320 321 322 320 321
328 328 328 327 327 328 328 329 328 328 328 326 326 324 326 324 325 326 324 323 323 323 323 322 321 321 320 321 319 319 318 318 318 318 319 318 320 318 317 317 317 320 320
323 324 325 325 326 326 325 324 324 323 323 323 323 320 320 319 320 320 321 322 323 323 322 321 320 318 318 315 314 314 315 318 318 318 317 318 318 320 320 317 317 314 315
325 323 321 320 320 320 320 320 321 323 321 323 322 320 317 314 313 313 314 316 318 319 320 321 320 318 316 313 313 314 316 317 318 317 317 317 317 317 320 318 317 316 313
323 322 322 321 320 318 317 317 316 316 316 319 320 320 320 320 319 321 320 321 320 321 320 319 320 317 315 315 312 316 318 318 317 316 316 315 315 315 316 317 316 318 317
322 321 322 321 320 318 315 315 315 315 316 316 317 314 315 315 314 315 315 315 318 320 322 322 321 320 318 316 318 316 316 317 317 316 315 314 314 314 315 314 315 317 317
322 322 322 321 320 318 314 314 314 314 314 315 314 314 313 312 313 313 314 315 315 317 317 320 320 320 318 317 316 316 317 317 315 316 314 313 314 313 315 316 316 316 316
321 321 321 320 319 316 315 314 314 314 313 313 312 312 311 312 312 312 314 314 315 316 316 319 321 320 318 317 317 316 320 319 316 314 314 314 314 313 314 316 316 316 315
321 320 320 318 317 315 315 314 314 314 313 312 312 312 311 311 311 312 314 314 315 315 315 317 318 319 319 317 317 316 317 317 320 319 314 314 313 313 313 312 314 316 315
319 318 317 316 316 315 313 313 312 312 312 312 312 312 312 310 311 313 314 315 315 315 315 317 317 319 318 318 317 318 318 317 316 317 318 316 314 312 312 311 312 314 314
318 317 315 315 314 313 313 312 312 311 313 313 313 312 312 311 311 313 314 314 315 316 316 316 316 318 317 318 317 317 317 317 317 316 317 316 315 313 312 311 313 314 313

GFSSE_925_thetae_285.txt.gz
Theta_e
346 349 349 349 349 349 342 340 345 347 347 346 346 341 335 331 328 328 329 331 329 326 320 316 316 317 317 314 312 321 326 323 322 335 338 336 343 341 346 346 343 339 341
343 346 345 347 347 346 343 342 345 346 345 346 344 335 332 329 328 328 329 332 330 333 334 327 320 320 320 320 320 319 320 322 327 335 337 341 342 346 343 345 343 342 342
345 342 339 341 344 345 345 345 346 345 345 346 342 334 330 328 328 328 328 328 330 333 329 323 322 321 321 321 322 321 323 324 333 339 346 344 346 348 347 346 344 343 341
349 346 345 341 341 344 345 346 345 344 345 342 337 333 330 330 330 328 328 330 335 334 327 323 322 322 322 321 321 322 322 325 331 341 345 342 340 342 344 342 340 342 339
347 345 346 345 341 342 341 342 342 344 342 338 336 333 331 332 331 328 329 332 336 334 326 323 322 323 323 322 322 321 321 324 325 326 332 333 329 326 336 338 337 337 336
346 346 345 344 341 341 342 342 342 342 339 337 337 336 333 332 331 328 329 332 334 330 323 322 322 323 324 323 322 320 321 324 324 323 322 324 321 319 318 320 333 332 333
345 343 343 342 341 342 341 342 340 338 335 333 331 337 335 331 331 329 327 327 332 330 322 321 322 323 324 323 322 321 321 323 324 323 322 321 320 318 313 315 327 325 324
345 341 339 341 342 341 341 340 338 335 332 329 328 329 329 329 330 329 328 327 326 323 322 321 322 323 324 324 323 321 322 322 324 324 323 321 317 316 315 313 325 328 328
345 344 344 339 339 339 338 338 336 332 329 327 325 325 326 326 326 326 326 326 324 323 322 322 322 323 325 325 323 323 323 323 323 324 320 318 318 318 314 313 328 329 330
339 343 343 343 342 340 339 338 334 331 328 325 323 322 322 321 321 323 322 323 322 322 322 322 324 325 325 327 326 324 324 323 322 322 321 319 318 318 315 313 326 327 328
337 337 339 340 340 340 338 335 331 326 325 328 327 324 328 330 330 325 322 325 325 325 325 323 324 325 328 326 325 324 324 323 322 322 321 319 318 318 313 321 326 328 329
335 336 337 336 336 338 338 337 332 333 332 332 331 331 329 331 334 331 330 330 331 332 332 328 327 327 325 325 324 324 323 323 322 322 321 319 319 318 316 320 325 327 326
333 333 334 334 334 334 334 332 330 328 329 331 331 330 330 330 331 333 330 330 331 332 331 330 327 325 325 323 322 323 323 323 322 321 320 320 319 318 321 323 326 324 324
333 333 333 332 333 333 333 331 330 330 330 330 329 329 330 328 328 329 330 330 329 329 329 329 325 324 323 321 322 322 322 322 322 321 320 320 320 319 320 324 323 323 323
328 327 326 328 330 331 330 330 330 330 329 330 329 327 327 325 325 326 327 327 329 327 326 326 325 324 324 324 325 322 322 322 321 321 320 320 320 319 320 323 322 323 322
326 328 325 325 322 323 324 325 326 323 328 327 326 323 321 320 321 322 322 323 324 324 324 324 323 323 323 324 323 322 321 320 318 319 319 319 319 320 319 323 323 322 321
322 322 322 321 322 320 320 325 324 322 322 321 320 319 319 318 316 316 315 315 316 319 322 323 322 321 321 321 321 321 321 320 319 317 319 318 318 321 319 322 321 318 319
322 322 320 320 318 317 316 317 320 319 322 323 322 321 319 316 316 316 317 315 317 317 317 317 319 319 320 320 320 320 319 318 317 316 318 318 318 320 323 320 317 318 318
322 322 321 319 317 316 316 316 315 315 315 320 323 322 318 316 315 315 316 316 315 319 319 320 320 319 319 319 319 318 314 314 315 316 318 317 316 317 319 321 318 317 317
322 322 320 320 318 316 315 316 315 314 315 320 319 316 316 316 315 313 312 312 313 314 317 319 320 320 319 319 318 316 315 314 317 319 318 317 315 316 317 315 315 316 316
322 322 320 318 318 316 315 316 316 314 315 314 314 313 312 311 311 312 312 312 312 314 314 315 317 318 319 319 319 317 317 317 318 318 316 316 314 314 314 314 313 317 316
323 320 319 318 318 317 314 314 314 312 312 313 312 313 313 312 313 311 311 312 313 314 313 315 315 316 317 318 319 317 313 316 318 317 317 315 314 313 313 313 313 315 316
320 318 320 317 315 314 313 314 313 313 313 313 313 313 313 313 312 311 313 311 313 314 314 315 314 315 316 317 318 317 313 313 314 315 314 315 314 314 314 315 315 316 315
318 317 314 313 313 312 312 313 313 313 312 312 313 312 312 311 312 312 312 313 313 314 313 314 314 315 315 316 316 317 317 316 312 312 314 315 314 313 313 312 315 317 315
319 316 314 313 313 312 313 312 311 312 312 311 311 311 310 310 311 311 311 312 312 312 313 313 314 315 315 316 316 316 313 315 316 313 312 313 313 313 312 313 316 314 314
314 314 313 311 311 311 311 311 310 310 310 310 310 309 308 310 311 309 310 311 312 313 313 313 314 315 315 315 315 316 315 314 314 313 310 312 312 313 314 314 314 313 311

GFSSE_925_thetae_291.txt.gz
Theta_e
347 349 349 343 339 341 345 345 344 343 338 334 332 331 329 325 324 321 317 315 318 325 328 331 331 327 323 322 323 329 331 342 341 347 346 346 346 345 345 345 341 339 336
347 348 347 343 341 345 345 345 345 344 339 333 329 327 328 331 324 319 319 324 327 328 329 329 329 327 322 322 325 334 334 340 343 346 346 346 345 345 344 344 343 343 344
347 347 346 342 341 343 345 345 344 345 340 333 330 327 325 324 325 325 327 327 330 328 324 323 324 326 322 322 329 337 340 345 342 341 341 342 343 344 344 344 342 344 342
344 345 344 344 344 345 345 344 344 344 339 334 331 328 326 327 330 333 333 334 330 325 324 324 323 323 321 324 326 340 342 338 337 334 329 335 337 339 341 341 340 339 338
341 343 345 345 346 345 345 343 343 341 337 336 337 333 329 328 331 334 334 330 326 324 323 324 323 322 321 323 325 332 342 337 337 329 327 326 325 327 325 332 337 336 334
345 343 343 343 344 344 343 342 340 338 337 337 336 333 330 328 326 328 326 323 323 322 323 324 324 323 321 321 324 325 328 336 332 326 322 321 319 319 319 322 332 334 332
344 342 341 341 342 343 343 341 339 336 336 338 339 338 329 326 326 325 321 322 321 322 323 323 324 323 322 322 323 326 326 325 322 321 319 318 318 318 319 321 325 327 327
341 342 342 341 341 342 340 338 336 335 334 336 337 338 332 327 324 322 321 320 321 321 321 322 324 325 323 323 324 324 322 322 323 321 318 318 318 319 319 318 328 328 328
340 340 339 338 338 336 336 336 335 333 333 332 334 335 334 332 330 327 325 324 324 323 322 322 323 325 325 324 324 324 322 322 322 321 319 319 319 319 317 321 329 329 329
342 342 341 340 338 337 335 335 335 336 335 333 334 334 335 337 336 335 332 330 330 326 325 323 323 325 327 325 324 323 323 322 322 321 319 319 320 320 318 316 327 329 329
336 339 341 340 337 335 334 334 336 333 329 331 333 333 332 332 331 332 332 332 334 331 329 327 325 325 327 326 324 323 322 322 321 320 320 319 320 320 319 325 329 329 331
334 334 335 335 332 336 333 333 333 331 330 329 330 331 329 329 331 332 331 330 329 334 333 329 326 325 326 324 324 322 322 322 321 321 320 320 320 321 319 325 328 326 328
330 331 331 331 330 330 330 330 330 329 329 329 330 330 330 329 329 330 330 331 331 330 331 330 329 328 327 326 323 322 321 321 321 321 321 320 322 327 321 326 327 326 324
324 323 324 324 326 326 327 326 323 324 327 327 326 326 325 325 324 324 326 329 330 331 330 330 330 328 328 327 324 323 323 321 320 321 321 322 321 326 325 327 326 325 324
321 321 320 319 319 320 321 322 323 322 323 322 320 318 317 316 316 318 321 324 326 326 326 326 326 325 325 325 323 324 324 323 320 319 320 322 322 325 327 325 325 324 323
320 319 317 316 315 316 316 317 315 314 314 320 322 319 316 314 314 315 316 316 316 317 318 320 322 323 323 323 323 324 321 322 321 319 316 322 326 324 324 324 324 324 321
318 317 316 315 314 315 315 313 312 312 313 314 321 321 319 315 314 313 313 314 314 315 317 318 318 318 318 318 319 319 320 320 320 320 316 317 322 321 323 322 323 321 320
320 319 318 315 314 314 314 313 312 313 313 318 320 321 321 317 316 315 313 313 312 312 314 317 318 319 319 319 318 318 318 319 319 318 316 317 318 319 320 321 322 320 319
320 319 318 316 315 315 313 312 310 312 312 313 314 315 316 315 313 312 312 311 311 311 312 315 315 317 317 318 318 318 318 318 315 315 315 318 318 319 318 320 319 317 319
321 320 319 317 316 315 314 311 312 311 311 312 313 313 313 312 312 313 312 310 311 311 313 313 315 315 316 316 317 318 318 317 315 315 316 317 316 318 317 316 315 316 315
322 321 319 317 315 312 311 312 312 311 311 312 312 312 313 313 313 312 311 312 312 311 313 313 314 314 314 315 317 318 316 316 316 317 318 316 316 317 316 315 314 316 318
321 320 316 313 312 312 312 312 310 310 310 310 311 311 311 312 312 312 312 312 312 312 313 313 314 314 314 315 317 315 310 313 315 315 315 315 315 316 314 313 313 315 316
319 317 313 313 311 312 311 310 309 309 309 309 309 309 309 310 311 310 310 310 310 312 312 312 313 314 314 314 316 315 312 311 310 313 314 314 315 316 313 314 314 314 314
314 313 311 311 311 310 310 309 308 308 308 307 306 306 306 307 309 310 309 309 310 311 312 313 313 314 315 314 316 317 316 313 310 314 313 313 313 312 313 314 314 315 315
312 312 311 311 309 309 309 308 307 306 306 307 305 305 306 306 307 308 309 309 311 312 313 313 313 314 314 315 315 315 315 314 314 310 310 311 312 312 312 312 313 314 315
310 308 309 309 309 308 308 307 306 306 306 306 305 305 304 305 307 309 309 311 312 311 310 311 312 313 314 315 315 314 314 313 313 312 308 308 308 313 314 315 315 315 314